TimeEDT,TemperatureF,Dew PointF,Humidity,Sea Level PressureIn,VisibilityMPH,Wind Direction,Wind SpeedMPH,Gust SpeedMPH,PrecipitationIn,Events,Conditions,WindDirDegrees,DateUTC
12:00 AM,79.0,69.1,72,29.71,-9999.0,SSE,4.6,-,N/A,,Clear,150,2013-06-30 04:00:00
1:00 AM,75.9,69.1,79,29.72,-9999.0,WSW,4.6,-,N/A,,Clear,240,2013-06-30 05:00:00
2:00 AM,77.0,70.0,79,29.73,-9999.0,SSE,3.5,-,N/A,,Clear,160,2013-06-30 06:00:00
3:00 AM,77.0,69.1,76,29.73,-9999.0,North,-9999.0,-,N/A,,Clear,0,2013-06-30 07:00:00
4:00 AM,73.0,68.0,84,29.73,-9999.0,Calm,Calm,-,N/A,,Clear,0,2013-06-30 08:00:00
5:00 AM,78.1,68.0,71,29.74,-9999.0,Calm,Calm,-,N/A,,Clear,0,2013-06-30 09:00:00
6:00 AM,78.8,69.8,74,29.77,-9999.0,Calm,Calm,-,N/A,,Mostly Cloudy,0,2013-06-30 10:00:00
6:06 AM,77.0,69.1,76,29.76,-9999.0,Calm,Calm,-,N/A,,Mostly Cloudy,0,2013-06-30 10:06:00
6:14 AM,75.2,69.8,83,29.77,-9999.0,Calm,Calm,-,N/A,,Overcast,0,2013-06-30 10:14:00
7:00 AM,77.0,71.1,82,29.79,-9999.0,Calm,Calm,-,N/A,,Overcast,0,2013-06-30 11:00:00
8:00 AM,86.0,73.0,65,29.81,-9999.0,SSW,4.6,-,N/A,,Overcast,200,2013-06-30 12:00:00
8:18 AM,84.2,73.4,70,29.82,-9999.0,SSW,3.5,-,N/A,,Overcast,210,2013-06-30 12:18:00
9:00 AM,88.0,73.0,61,29.81,-9999.0,SW,5.8,-,N/A,,Overcast,220,2013-06-30 13:00:00
10:00 AM,91.0,73.0,55,29.81,-9999.0,Calm,Calm,-,N/A,,Overcast,0,2013-06-30 14:00:00
10:18 AM,89.6,73.4,59,29.81,-9999.0,Calm,Calm,-,N/A,,Mostly Cloudy,0,2013-06-30 14:18:00
11:00 AM,91.4,73.4,55,29.81,-9999.0,SSW,3.5,-,N/A,,Scattered Clouds,200,2013-06-30 15:00:00
11:06 AM,93.9,73.9,52,29.81,-9999.0,South,4.6,-,N/A,,Scattered Clouds,170,2013-06-30 15:06:00
11:28 AM,93.2,73.4,52,29.82,-9999.0,South,6.9,-,N/A,,Mostly Cloudy,170,2013-06-30 15:28:00
11:48 AM,93.2,73.4,52,29.82,-9999.0,SSE,9.2,-,N/A,,Scattered Clouds,150,2013-06-30 15:48:00
12:00 PM,93.0,73.9,54,29.81,-9999.0,SSE,5.8,-,N/A,,Scattered Clouds,150,2013-06-30 16:00:00
1:00 PM,95.0,73.0,49,29.81,-9999.0,SSE,6.9,-,N/A,,Partly Cloudy,160,2013-06-30 17:00:00
2:00 PM,91.9,73.9,55,29.82,-9999.0,SSE,9.2,-,N/A,,Partly Cloudy,160,2013-06-30 18:00:00
3:00 PM,90.0,73.0,57,29.83,-9999.0,South,9.2,-,N/A,,Mostly Cloudy,170,2013-06-30 19:00:00
3:52 PM,84.2,73.4,70,29.85,-9999.0,SSW,8.1,-,N/A,Rain-Thunderstorm,Thunderstorms and Rain,210,2013-06-30 19:52:00
4:00 PM,84.0,73.9,72,29.84,-9999.0,South,8.1,-,N/A,Rain-Thunderstorm,Thunderstorms and Rain,180,2013-06-30 20:00:00
4:07 PM,84.2,73.4,70,29.85,-9999.0,South,10.4,-,N/A,Rain,Light Rain,190,2013-06-30 20:07:00
4:25 PM,84.2,73.4,70,29.85,-9999.0,SW,9.2,-,N/A,Rain,Light Rain,230,2013-06-30 20:25:00
4:30 PM,82.4,73.4,74,29.84,-9999.0,SW,6.9,-,N/A,Rain,Light Rain,220,2013-06-30 20:30:00
4:32 PM,82.4,73.4,74,29.84,-9999.0,SSW,9.2,-,N/A,Rain,Light Rain,210,2013-06-30 20:32:00
4:50 PM,84.2,73.4,70,29.83,-9999.0,South,6.9,-,N/A,Rain,Light Rain,180,2013-06-30 20:50:00
5:00 PM,84.0,73.0,69,29.83,-9999.0,South,6.9,-,N/A,Rain,Light Rain,180,2013-06-30 21:00:00
5:48 PM,84.2,73.4,70,29.82,-9999.0,South,8.1,-,N/A,,Partly Cloudy,170,2013-06-30 21:48:00
6:00 PM,86.0,73.9,67,29.82,-9999.0,South,9.2,-,N/A,,Scattered Clouds,180,2013-06-30 22:00:00
7:00 PM,88.0,73.0,61,29.84,-9999.0,South,6.9,-,N/A,,Clear,170,2013-06-30 23:00:00
8:00 PM,84.9,72.0,65,29.85,-9999.0,SSE,8.1,-,N/A,,Scattered Clouds,160,2013-07-01 00:00:00
8:18 PM,84.2,71.6,66,29.87,-9999.0,South,6.9,-,N/A,,Mostly Cloudy,170,2013-07-01 00:18:00
9:00 PM,82.9,72.0,69,29.88,-9999.0,South,6.9,-,N/A,,Overcast,180,2013-07-01 01:00:00
9:10 PM,84.2,71.6,66,29.89,-9999.0,South,6.9,-,N/A,,Overcast,170,2013-07-01 01:10:00
10:00 PM,82.9,72.0,69,29.89,-9999.0,South,9.2,-,N/A,,Overcast,170,2013-07-01 02:00:00
10:35 PM,82.4,71.6,70,29.90,-9999.0,South,12.7,20.7,N/A,,Overcast,180,2013-07-01 02:35:00
11:06 PM,82.9,71.1,67,29.90,-9999.0,South,9.2,-,N/A,,Mostly Cloudy,180,2013-07-01 03:06:00